Powrót do katalogu

SL-16 R/B

AktywnyLEO
NORAD 23088·ROCKET BODY·🇷🇺 Russia

Wystrzelony Apr 23, 1994 z Baikonur Cosmodrome

Loading…

Następne Przeloty (najbliższe 24 godziny)

TLE

ŚwieżeSource: Space-Track

Epoka: Sep 14, 2026, 09:21 UTC

1 23088U 94023B   26257.39001510 -.00000261  00000-0 -11009-3 0  9995
2 23088  71.0014  34.5919 0003886 331.4394  28.6515 14.15033234672782

Śledź SL-16 R/B w czasie rzeczywistym z AllMySat

Download on the App Store